Time,TemperatureF,DewpointF,PressureIn,WindDirection,WindDirectionDegrees,WindSpeedMPH,WindSpeedGustMPH,Humidity,HourlyPrecipIn,Conditions,Clouds,dailyrainin,SoftwareType,DateUTC
2013-07-15 06:22:00,67.7,0.0,30.33,SSW,200,0.0,0.0,0,0.00,,-RA,0.00,VWS V14.01,2013-07-15 10:22:00,
2013-07-15 06:27:00,67.7,0.0,30.33,SSW,200,0.0,0.0,0,0.55,,-RA,0.00,VWS V14.01,2013-07-15 10:27:00,
2013-07-15 06:32:00,67.7,0.0,30.33,SSW,200,0.0,0.0,0,0.00,,-RA,0.00,VWS V14.01,2013-07-15 10:32:00,
2013-07-15 06:37:00,67.6,0.0,30.33,SSW,200,0.0,0.0,0,0.00,,-RA,0.00,VWS V14.01,2013-07-15 10:37:00,
2013-07-15 06:42:00,67.5,0.0,30.33,SSW,199,0.0,0.0,0,0.00,,-RA,0.00,VWS V14.01,2013-07-15 10:42:00,
2013-07-15 06:47:00,67.6,0.0,30.33,SSW,200,0.0,0.0,0,0.00,,-RA,0.00,VWS V14.01,2013-07-15 10:47:00,
2013-07-15 06:52:00,67.6,0.0,30.33,SSW,200,0.0,0.0,0,0.00,,-RA,0.00,VWS V14.01,2013-07-15 10:52:00,
2013-07-15 06:57:00,67.7,0.0,30.34,SSW,199,0.0,0.0,0,0.00,,-RA,0.00,VWS V14.01,2013-07-15 10:57:00,
2013-07-15 07:02:00,67.8,0.0,30.34,SSW,200,0.0,0.0,0,0.00,,-RA,0.00,VWS V14.01,2013-07-15 11:02:00,
2013-07-15 07:07:00,68.1,0.0,30.34,SSW,200,0.0,0.0,0,0.00,,-RA,0.00,VWS V14.01,2013-07-15 11:07:00,
2013-07-15 07:12:00,68.3,0.0,30.34,SSW,200,0.0,0.0,0,0.00,,-RA,0.00,VWS V14.01,2013-07-15 11:12:00,
2013-07-15 07:17:00,68.5,0.0,30.34,SSW,200,0.0,0.0,0,0.00,,-RA,0.00,VWS V14.01,2013-07-15 11:17:00,
2013-07-15 07:22:00,68.8,0.0,30.34,SSW,200,0.0,0.0,0,0.00,,-RA,0.00,VWS V14.01,2013-07-15 11:22:00,
2013-07-15 07:27:00,69.0,0.0,30.34,SSW,200,0.0,0.0,0,0.00,,-RA,0.00,VWS V14.01,2013-07-15 11:27:00,
2013-07-15 07:32:00,69.3,0.0,30.34,SSW,200,0.0,0.0,0,0.00,,-RA,0.00,VWS V14.01,2013-07-15 11:32:00,
2013-07-15 07:37:00,69.7,0.0,30.34,SSW,200,0.0,0.0,0,0.00,,-RA,0.00,VWS V14.01,2013-07-15 11:37:00,
2013-07-15 07:42:00,70.0,0.0,30.34,SSW,200,0.0,0.0,0,0.00,,-RA,0.00,VWS V14.01,2013-07-15 11:42:00,
2013-07-15 07:47:00,70.4,0.0,30.34,SSW,200,0.0,0.0,0,0.00,,-RA,0.00,VWS V14.01,2013-07-15 11:47:00,
2013-07-15 07:52:00,70.8,0.0,30.35,SSW,200,0.0,0.0,0,0.00,,-RA,0.00,VWS V14.01,2013-07-15 11:52:00,
2013-07-15 07:57:00,71.2,0.0,30.34,SSW,200,0.0,0.0,0,0.00,,-RA,0.00,VWS V14.01,2013-07-15 11:57:00,
2013-07-15 08:02:00,71.6,0.0,30.34,SSW,200,0.0,0.0,0,0.00,,-RA,0.00,VWS V14.01,2013-07-15 12:02:00,
2013-07-15 08:07:00,72.2,0.0,30.34,SSW,200,0.0,0.0,0,0.00,,-RA,0.00,VWS V14.01,2013-07-15 12:07:00,
2013-07-15 08:12:00,72.6,0.0,30.35,SSW,200,0.0,0.0,0,0.00,,-RA,0.00,VWS V14.01,2013-07-15 12:12:00,
2013-07-15 08:17:00,73.0,0.0,30.35,SSW,200,0.0,0.0,0,0.00,,-RA,0.00,VWS V14.01,2013-07-15 12:17:00,
2013-07-15 08:22:00,73.2,0.0,30.35,ESE,113,0.0,2.0,0,0.00,,-RA,0.00,VWS V14.01,2013-07-15 12:22:00,
2013-07-15 08:27:00,73.3,0.0,30.35,ESE,113,0.0,2.0,0,0.00,,-RA,0.00,VWS V14.01,2013-07-15 12:27:00,
2013-07-15 08:32:00,73.4,0.0,30.35,ESE,113,0.0,0.0,0,0.00,,-RA,0.00,VWS V14.01,2013-07-15 12:32:00,
2013-07-15 08:37:00,73.6,0.0,30.35,ESE,113,0.0,1.0,0,0.00,,-RA,0.00,VWS V14.01,2013-07-15 12:37:00,
2013-07-15 08:42:00,73.7,0.0,30.35,SW,231,0.0,1.0,0,0.00,,-RA,0.00,VWS V14.01,2013-07-15 12:42:00,
2013-07-15 08:47:00,73.8,0.0,30.36,South,184,0.0,1.0,0,0.00,,-RA,0.00,VWS V14.01,2013-07-15 12:47:00,
2013-07-15 08:52:00,74.0,0.0,30.36,South,183,0.0,1.0,0,0.00,,-RA,0.00,VWS V14.01,2013-07-15 12:52:00,
2013-07-15 08:57:00,74.0,0.0,30.36,South,183,0.0,1.0,0,0.00,,-RA,0.00,VWS V14.01,2013-07-15 12:57:00,
2013-07-15 09:02:00,74.2,0.0,30.36,South,183,0.0,0.0,0,0.00,,-RA,0.00,VWS V14.01,2013-07-15 13:02:00,
2013-07-15 09:07:00,74.5,0.0,30.36,South,183,1.0,1.0,0,0.00,,-RA,0.00,VWS V14.01,2013-07-15 13:07:00,
2013-07-15 09:12:00,74.9,0.0,30.36,SSE,158,1.0,1.0,0,0.00,,-RA,0.00,VWS V14.01,2013-07-15 13:12:00,
2013-07-15 09:17:00,75.0,0.0,30.36,SSE,150,1.0,2.0,0,0.00,,-RA,0.00,VWS V14.01,2013-07-15 13:17:00,
2013-07-15 09:22:00,74.9,0.0,30.36,South,190,1.0,2.0,0,0.00,,-RA,0.00,VWS V14.01,2013-07-15 13:22:00,
2013-07-15 09:27:00,75.0,0.0,30.36,SSW,193,2.0,3.0,0,0.00,,-RA,0.00,VWS V14.01,2013-07-15 13:27:00,
2013-07-15 09:32:00,75.7,0.0,30.35,SSW,193,0.0,2.0,0,0.00,,-RA,0.00,VWS V14.01,2013-07-15 13:32:00,
2013-07-15 09:37:00,76.1,0.0,30.35,SSE,151,1.0,3.0,0,0.00,,-RA,0.00,VWS V14.01,2013-07-15 13:37:00,
2013-07-15 09:42:00,76.5,0.0,30.35,SE,139,1.0,3.0,0,0.00,,-RA,0.00,VWS V14.01,2013-07-15 13:42:00,
2013-07-15 09:47:00,77.4,0.0,30.36,SE,140,0.0,3.0,0,0.00,,-RA,0.00,VWS V14.01,2013-07-15 13:47:00,
2013-07-15 09:52:00,78.1,0.0,30.36,East,79,0.0,3.0,0,0.00,,-RA,0.00,VWS V14.01,2013-07-15 13:52:00,
2013-07-15 09:57:00,79.2,0.0,30.35,NNE,26,0.0,3.0,0,0.00,,-RA,0.00,VWS V14.01,2013-07-15 13:57:00,
2013-07-15 10:02:00,78.9,0.0,30.35,NNE,26,0.0,1.0,0,0.00,,-RA,0.00,VWS V14.01,2013-07-15 14:02:00,
2013-07-15 10:07:00,78.9,0.0,30.35,South,177,1.0,2.0,0,0.00,,-RA,0.00,VWS V14.01,2013-07-15 14:07:00,
2013-07-15 10:12:00,78.8,12.6,30.35,WSW,243,0.0,4.0,8,0.00,,-RA,0.00,VWS V14.01,2013-07-15 14:12:00,
2013-07-15 10:17:00,78.5,19.7,30.35,ESE,110,0.0,4.0,11,0.00,,-RA,0.00,VWS V14.01,2013-07-15 14:17:00,
2013-07-15 10:22:00,78.6,15.1,30.35,ESE,111,0.0,4.0,9,0.00,,-RA,0.00,VWS V14.01,2013-07-15 14:22:00,
2013-07-15 10:27:00,78.6,17.5,30.35,South,176,0.0,4.0,10,0.00,,-RA,0.00,VWS V14.01,2013-07-15 14:27:00,
2013-07-15 10:32:00,78.8,31.8,30.35,WSW,240,0.0,1.0,18,0.00,,-RA,0.00,VWS V14.01,2013-07-15 14:32:00,
2013-07-15 10:37:00,78.7,38.9,30.36,SW,231,0.0,4.0,24,0.00,,-RA,0.00,VWS V14.01,2013-07-15 14:37:00,
2013-07-15 10:42:00,78.5,37.7,30.36,SSE,152,0.0,4.0,23,0.00,,-RA,0.00,VWS V14.01,2013-07-15 14:42:00,
2013-07-15 10:47:00,78.6,34.2,30.36,SW,214,0.0,4.0,20,0.00,,-RA,0.00,VWS V14.01,2013-07-15 14:47:00,
2013-07-15 10:52:00,79.1,35.8,30.35,SSW,210,0.0,4.0,21,0.00,,-RA,0.00,VWS V14.01,2013-07-15 14:52:00,
2013-07-15 10:57:00,79.7,41.8,30.36,SSW,210,0.0,4.0,26,0.00,,-RA,0.00,VWS V14.01,2013-07-15 14:57:00,
2013-07-15 11:02:00,80.5,48.8,30.36,East,100,1.0,2.0,33,0.00,,-RA,0.00,VWS V14.01,2013-07-15 15:02:00,
2013-07-15 11:08:00,80.8,52.8,30.36,SSE,160,0.0,2.0,38,0.00,,-RA,0.00,VWS V14.01,2013-07-15 15:08:00,
2013-07-15 11:13:00,81.0,56.4,30.35,SSE,160,0.0,2.0,43,0.00,,-RA,0.00,VWS V14.01,2013-07-15 15:13:00,
2013-07-15 11:18:00,81.4,56.8,30.35,ESE,113,0.0,3.0,43,0.00,,-RA,0.00,VWS V14.01,2013-07-15 15:18:00,
2013-07-15 11:23:00,81.8,59.6,30.35,ENE,60,1.0,3.0,47,0.00,,-RA,0.00,VWS V14.01,2013-07-15 15:23:00,
2013-07-15 11:28:00,81.5,59.9,30.35,NE,47,0.0,3.0,48,0.00,,-RA,0.00,VWS V14.01,2013-07-15 15:28:00,
2013-07-15 11:33:00,81.2,54.6,30.35,ENE,65,0.0,0.0,40,0.00,,-RA,0.00,VWS V14.01,2013-07-15 15:33:00,
2013-07-15 11:38:00,81.0,54.4,30.35,SE,141,0.0,1.0,40,0.00,,-RA,0.00,VWS V14.01,2013-07-15 15:38:00,
2013-07-15 11:43:00,81.2,55.3,30.35,SSW,196,1.0,1.0,41,0.00,,-RA,0.00,VWS V14.01,2013-07-15 15:43:00,
2013-07-15 11:48:00,81.5,59.3,30.35,ESE,111,1.0,3.0,47,0.00,,-RA,0.00,VWS V14.01,2013-07-15 15:48:00,
2013-07-15 11:54:00,82.1,62.2,30.35,SE,134,1.0,4.0,51,0.00,,-RA,0.00,VWS V14.01,2013-07-15 15:54:00,
2013-07-15 11:59:00,82.4,64.1,30.35,West,269,0.0,4.0,54,0.00,,-RA,0.00,VWS V14.01,2013-07-15 15:59:00,
2013-07-15 12:04:00,82.2,63.9,30.34,WNW,285,0.0,1.0,54,0.00,,-RA,0.00,VWS V14.01,2013-07-15 16:04:00,
2013-07-15 12:09:00,82.4,65.1,30.34,South,187,3.0,4.0,56,0.00,,-RA,0.00,VWS V14.01,2013-07-15 16:09:00,
2013-07-15 12:14:00,82.8,61.1,30.34,SSW,201,0.0,4.0,48,0.00,,-RA,0.00,VWS V14.01,2013-07-15 16:14:00,
2013-07-15 12:19:00,82.9,64.6,30.34,ENE,68,0.0,4.0,54,0.00,,-RA,0.00,VWS V14.01,2013-07-15 16:19:00,
2013-07-15 12:24:00,82.3,62.9,30.34,ENE,68,1.0,4.0,52,0.00,,-RA,0.00,VWS V14.01,2013-07-15 16:24:00,
2013-07-15 12:29:00,81.7,60.7,30.34,ENE,70,0.0,4.0,49,0.00,,-RA,0.00,VWS V14.01,2013-07-15 16:29:00,
2013-07-15 12:34:00,81.9,57.9,30.34,ENE,70,0.0,1.0,44,0.00,,-RA,0.00,VWS V14.01,2013-07-15 16:34:00,
2013-07-15 12:40:00,82.9,61.8,30.34,West,269,1.0,2.0,49,0.00,,-RA,0.00,VWS V14.01,2013-07-15 16:40:00,
2013-07-15 12:45:00,83.4,66.6,30.34,SW,232,0.0,3.0,57,0.00,,-RA,0.00,VWS V14.01,2013-07-15 16:45:00,
2013-07-15 12:50:00,83.6,65.2,30.34,SW,221,0.0,3.0,54,0.00,,-RA,0.00,VWS V14.01,2013-07-15 16:50:00,
2013-07-15 12:55:00,84.1,66.7,30.34,SSW,200,1.0,4.0,56,0.00,,-RA,0.00,VWS V14.01,2013-07-15 16:55:00,
2013-07-15 13:00:00,83.5,66.7,30.34,South,180,1.0,4.0,57,0.00,,-RA,0.00,VWS V14.01,2013-07-15 17:00:00,
2013-07-15 13:05:00,82.8,64.5,30.34,SSW,207,2.0,3.0,54,0.00,,-RA,0.00,VWS V14.01,2013-07-15 17:05:00,
2013-07-15 13:10:00,82.8,62.8,30.34,South,177,0.0,3.0,51,0.00,,-RA,0.00,VWS V14.01,2013-07-15 17:10:00,
2013-07-15 13:15:00,83.4,64.0,30.33,SE,129,1.0,3.0,52,0.00,,-RA,0.00,VWS V14.01,2013-07-15 17:15:00,
2013-07-15 13:20:00,83.6,66.8,30.33,WSW,246,0.0,3.0,57,0.00,,-RA,0.00,VWS V14.01,2013-07-15 17:20:00,
2013-07-15 13:25:00,83.2,65.4,30.33,SSW,208,0.0,3.0,55,0.00,,-RA,0.00,VWS V14.01,2013-07-15 17:25:00,
2013-07-15 13:30:00,83.4,65.6,30.33,South,182,1.0,1.0,55,0.00,,-RA,0.00,VWS V14.01,2013-07-15 17:30:00,
2013-07-15 13:36:00,83.8,65.4,30.33,WSW,254,1.0,2.0,54,0.00,,-RA,0.00,VWS V14.01,2013-07-15 17:36:00,
2013-07-15 13:41:00,84.3,66.4,30.33,SSE,155,0.0,3.0,55,0.00,,-RA,0.00,VWS V14.01,2013-07-15 17:41:00,
2013-07-15 13:46:00,84.3,67.9,30.32,WSW,257,0.0,7.0,58,0.00,,-RA,0.00,VWS V14.01,2013-07-15 17:46:00,
2013-07-15 13:52:00,84.7,68.3,30.32,East,99,0.0,7.0,58,0.00,,-RA,0.00,VWS V14.01,2013-07-15 17:52:00,
2013-07-15 13:57:00,85.1,68.7,30.32,West,276,1.0,7.0,58,0.00,,-RA,0.00,VWS V14.01,2013-07-15 17:57:00,
2013-07-15 14:02:00,84.5,68.1,30.32,South,186,3.0,5.0,58,0.00,,-RA,0.00,VWS V14.01,2013-07-15 18:02:00,
2013-07-15 14:07:00,84.5,68.6,30.32,South,191,1.0,6.0,59,0.00,,-RA,0.00,VWS V14.01,2013-07-15 18:07:00,
2013-07-15 14:12:00,84.9,68.5,30.32,SSW,211,0.0,6.0,58,0.00,,-RA,0.00,VWS V14.01,2013-07-15 18:12:00,
2013-07-15 14:17:00,85.4,69.4,30.32,WSW,255,1.0,6.0,59,0.00,,-RA,0.00,VWS V14.01,2013-07-15 18:17:00,
2013-07-15 14:22:00,85.1,68.7,30.32,SSE,150,0.0,6.0,58,0.00,,-RA,0.00,VWS V14.01,2013-07-15 18:22:00,
2013-07-15 14:27:00,85.3,68.9,30.31,SE,138,0.0,6.0,58,0.00,,-RA,0.00,VWS V14.01,2013-07-15 18:27:00,
2013-07-15 14:32:00,84.8,68.4,30.31,SE,131,0.0,0.0,58,0.00,,-RA,0.00,VWS V14.01,2013-07-15 18:32:00,
2013-07-15 14:37:00,84.7,67.8,30.31,SW,235,0.0,2.0,57,0.00,,-RA,0.00,VWS V14.01,2013-07-15 18:37:00,
2013-07-15 14:42:00,85.2,68.3,30.31,SSW,195,0.0,3.0,57,0.00,,-RA,0.00,VWS V14.01,2013-07-15 18:42:00,
2013-07-15 14:48:00,85.6,68.6,30.31,West,266,0.0,3.0,57,0.00,,-RA,0.00,VWS V14.01,2013-07-15 18:48:00,
2013-07-15 14:53:00,86.1,69.6,30.30,South,181,1.0,3.0,58,0.00,,-RA,0.00,VWS V14.01,2013-07-15 18:53:00,
2013-07-15 14:58:00,86.0,69.5,30.30,SE,140,0.0,3.0,58,0.00,,-RA,0.00,VWS V14.01,2013-07-15 18:58:00,
2013-07-15 15:03:00,85.9,69.4,30.30,SSE,148,0.0,1.0,58,0.00,,-RA,0.00,VWS V14.01,2013-07-15 19:03:00,
2013-07-15 15:08:00,85.8,69.3,30.30,WSW,252,1.0,3.0,58,0.00,,-RA,0.00,VWS V14.01,2013-07-15 19:08:00,
2013-07-15 15:13:00,85.5,69.1,30.30,NNE,15,1.0,4.0,58,0.00,,-RA,0.00,VWS V14.01,2013-07-15 19:13:00,
2013-07-15 15:18:00,85.1,68.7,30.29,East,100,0.0,4.0,58,0.00,,-RA,0.00,VWS V14.01,2013-07-15 19:18:00,
2013-07-15 15:23:00,84.2,67.8,30.30,ENE,67,0.0,4.0,58,0.00,,-RA,0.00,VWS V14.01,2013-07-15 19:23:00,
2013-07-15 15:28:00,83.5,66.7,30.30,NE,53,1.0,4.0,57,0.00,,-RA,0.00,VWS V14.01,2013-07-15 19:28:00,
2013-07-15 15:33:00,83.5,65.7,30.29,SSW,194,1.0,2.0,55,0.00,,-RA,0.00,VWS V14.01,2013-07-15 19:33:00,
2013-07-15 15:38:00,84.1,67.7,30.29,SSW,197,2.0,4.0,58,0.00,,-RA,0.00,VWS V14.01,2013-07-15 19:38:00,
2013-07-15 15:43:00,84.5,67.6,30.29,SSE,165,0.0,4.0,57,0.00,,-RA,0.00,VWS V14.01,2013-07-15 19:43:00,
2013-07-15 15:48:00,84.7,68.3,30.29,South,179,0.0,4.0,58,0.00,,-RA,0.00,VWS V14.01,2013-07-15 19:48:00,
2013-07-15 15:53:00,85.0,68.6,30.29,East,84,1.0,4.0,58,0.00,,-RA,0.00,VWS V14.01,2013-07-15 19:53:00,
2013-07-15 15:58:00,84.8,68.4,30.29,ESE,113,0.0,4.0,58,0.00,,-RA,0.00,VWS V14.01,2013-07-15 19:58:00,
2013-07-15 16:03:00,84.7,68.3,30.29,South,174,3.0,6.0,58,0.00,,-RA,0.00,VWS V14.01,2013-07-15 20:03:00,
2013-07-15 16:08:00,84.7,68.3,30.28,SW,222,1.0,6.0,58,0.00,,-RA,0.00,VWS V14.01,2013-07-15 20:08:00,
2013-07-15 16:13:00,84.8,68.4,30.29,SSW,204,0.0,6.0,58,0.00,,-RA,0.00,VWS V14.01,2013-07-15 20:13:00,
2013-07-15 16:18:00,84.7,68.3,30.29,NE,34,1.0,6.0,58,0.00,,-RA,0.00,VWS V14.01,2013-07-15 20:18:00,
2013-07-15 16:24:00,84.2,68.3,30.29,East,79,0.0,6.0,59,0.00,,-RA,0.00,VWS V14.01,2013-07-15 20:24:00,
2013-07-15 16:29:00,83.8,68.0,30.29,SSE,162,0.0,6.0,59,0.00,,-RA,0.00,VWS V14.01,2013-07-15 20:29:00,
2013-07-15 16:34:00,83.6,67.8,30.28,SSE,151,2.0,3.0,59,0.00,,-RA,0.00,VWS V14.01,2013-07-15 20:34:00,
2013-07-15 16:39:00,84.3,67.9,30.29,North,353,1.0,3.0,58,0.00,,-RA,0.00,VWS V14.01,2013-07-15 20:39:00,
2013-07-15 16:44:00,84.3,67.9,30.29,NE,44,0.0,3.0,58,0.00,,-RA,0.00,VWS V14.01,2013-07-15 20:44:00,
2013-07-15 16:49:00,83.9,68.1,30.28,NE,37,0.0,3.0,59,0.00,,-RA,0.00,VWS V14.01,2013-07-15 20:49:00,
2013-07-15 16:54:00,83.9,66.5,30.28,NE,37,0.0,3.0,56,0.00,,-RA,0.00,VWS V14.01,2013-07-15 20:54:00,
2013-07-15 16:59:00,83.9,68.1,30.28,SSE,165,0.0,3.0,59,0.00,,-RA,0.00,VWS V14.01,2013-07-15 20:59:00,
2013-07-15 17:04:00,83.8,67.5,30.28,South,183,0.0,3.0,58,0.00,,-RA,0.00,VWS V14.01,2013-07-15 21:04:00,
2013-07-15 17:09:00,83.8,68.0,30.28,SW,227,0.0,3.0,59,0.00,,-RA,0.00,VWS V14.01,2013-07-15 21:09:00,
2013-07-15 17:14:00,83.8,67.5,30.28,SSE,160,1.0,3.0,58,0.00,,-RA,0.00,VWS V14.01,2013-07-15 21:14:00,
2013-07-15 17:19:00,84.0,68.1,30.28,SSE,162,0.0,3.0,59,0.00,,-RA,0.00,VWS V14.01,2013-07-15 21:19:00,
2013-07-15 17:24:00,83.8,68.0,30.28,West,278,0.0,3.0,59,0.00,,-RA,0.00,VWS V14.01,2013-07-15 21:24:00,
2013-07-15 17:30:00,83.8,68.0,30.28,West,278,0.0,3.0,59,0.00,,-RA,0.00,VWS V14.01,2013-07-15 21:30:00,
2013-07-15 17:35:00,83.6,67.8,30.27,SSW,203,0.0,2.0,59,0.00,,-RA,0.00,VWS V14.01,2013-07-15 21:35:00,
2013-07-15 17:40:00,83.6,67.8,30.27,SSW,194,0.0,3.0,59,0.00,,-RA,0.00,VWS V14.01,2013-07-15 21:40:00,
2013-07-15 17:45:00,83.7,67.9,30.27,SSW,194,0.0,3.0,59,0.00,,-RA,0.00,VWS V14.01,2013-07-15 21:45:00,
2013-07-15 17:50:00,83.4,67.6,30.27,SSW,194,0.0,3.0,59,0.00,,-RA,0.00,VWS V14.01,2013-07-15 21:50:00,
2013-07-15 17:55:00,83.1,67.3,30.27,SSW,208,0.0,3.0,59,0.00,,-RA,0.00,VWS V14.01,2013-07-15 21:55:00,
2013-07-15 18:00:00,83.2,67.4,30.27,WSW,240,1.0,1.0,59,0.00,,-RA,0.00,VWS V14.01,2013-07-15 22:00:00,
2013-07-15 18:05:00,83.4,67.1,30.27,SSE,153,0.0,3.0,58,0.00,,-RA,0.00,VWS V14.01,2013-07-15 22:05:00,
2013-07-15 18:10:00,83.3,67.5,30.27,SSE,153,0.0,3.0,59,0.00,,-RA,0.00,VWS V14.01,2013-07-15 22:10:00,
2013-07-15 18:16:00,83.1,66.8,30.27,South,177,0.0,3.0,58,0.00,,-RA,0.00,VWS V14.01,2013-07-15 22:16:00,
2013-07-15 18:21:00,83.1,67.3,30.27,South,177,0.0,3.0,59,0.00,,-RA,0.00,VWS V14.01,2013-07-15 22:21:00,
2013-07-15 18:26:00,83.0,67.2,30.27,SSW,195,0.0,3.0,59,0.00,,-RA,0.00,VWS V14.01,2013-07-15 22:26:00,
2013-07-15 18:31:00,83.1,66.3,30.27,South,191,1.0,1.0,57,0.00,,-RA,0.00,VWS V14.01,2013-07-15 22:31:00,
2013-07-15 18:36:00,82.8,66.0,30.27,SSW,193,1.0,1.0,57,0.00,,-RA,0.00,VWS V14.01,2013-07-15 22:36:00,
2013-07-15 18:41:00,82.7,65.4,30.27,SSW,193,0.0,1.0,56,0.00,,-RA,0.00,VWS V14.01,2013-07-15 22:41:00,
2013-07-15 18:46:00,82.5,65.2,30.27,SSW,193,0.0,1.0,56,0.00,,-RA,0.00,VWS V14.01,2013-07-15 22:46:00,
2013-07-15 18:51:00,82.4,64.6,30.27,WSW,238,0.0,1.0,55,0.00,,-RA,0.00,VWS V14.01,2013-07-15 22:51:00,
2013-07-15 18:57:00,82.3,65.6,30.27,North,4,0.0,1.0,57,0.00,,-RA,0.00,VWS V14.01,2013-07-15 22:57:00,
2013-07-15 19:02:00,82.3,65.1,30.27,North,359,0.0,0.0,56,0.00,,-RA,0.00,VWS V14.01,2013-07-15 23:02:00,
2013-07-15 19:07:00,82.3,64.5,30.27,North,360,0.0,1.0,55,0.00,,-RA,0.00,VWS V14.01,2013-07-15 23:07:00,
2013-07-15 19:12:00,82.0,63.2,30.27,North,360,0.0,1.0,53,0.00,,-RA,0.00,VWS V14.01,2013-07-15 23:12:00,
2013-07-15 19:17:00,81.7,62.4,30.27,North,360,0.0,1.0,52,0.00,,-RA,0.00,VWS V14.01,2013-07-15 23:17:00,
2013-07-15 19:22:00,81.4,59.8,30.27,North,360,0.0,1.0,48,0.00,,-RA,0.00,VWS V14.01,2013-07-15 23:22:00,
2013-07-15 19:27:00,81.0,61.2,30.28,North,360,0.0,1.0,51,0.00,,-RA,0.00,VWS V14.01,2013-07-15 23:27:00,
2013-07-15 19:32:00,80.9,57.6,30.28,North,360,0.0,0.0,45,0.00,,-RA,0.00,VWS V14.01,2013-07-15 23:32:00,
2013-07-15 19:37:00,80.5,56.6,30.28,North,359,0.0,0.0,44,0.00,,-RA,0.00,VWS V14.01,2013-07-15 23:37:00,
2013-07-15 19:42:00,80.2,50.8,30.28,North,359,0.0,0.0,36,0.00,,-RA,0.00,VWS V14.01,2013-07-15 23:42:00,
2013-07-15 19:47:00,79.9,47.4,30.28,North,360,0.0,0.0,32,0.00,,-RA,0.00,VWS V14.01,2013-07-15 23:47:00,
2013-07-15 19:52:00,79.7,40.8,30.28,North,360,0.0,0.0,25,0.00,,-RA,0.00,VWS V14.01,2013-07-15 23:52:00,
2013-07-15 19:57:00,79.6,31.0,30.28,North,360,0.0,0.0,17,0.00,,-RA,0.00,VWS V14.01,2013-07-15 23:57:00,
2013-07-15 20:02:00,79.5,29.4,30.28,North,360,0.0,0.0,16,0.00,,-RA,0.00,VWS V14.01,2013-07-16 00:02:00,
2013-07-15 20:07:00,79.4,20.4,30.28,North,360,0.0,0.0,11,0.00,,-RA,0.00,VWS V14.01,2013-07-16 00:07:00,
2013-07-15 20:12:00,78.9,17.8,30.29,North,360,0.0,0.0,10,0.00,,-RA,0.00,VWS V14.01,2013-07-16 00:12:00,
2013-07-15 20:17:00,78.4,-2.8,30.29,North,360,0.0,0.0,4,0.00,,-RA,0.00,VWS V14.01,2013-07-16 00:17:00,
2013-07-15 20:22:00,77.8,0.0,30.29,North,360,0.0,0.0,0,0.00,,-RA,0.00,VWS V14.01,2013-07-16 00:22:00,
2013-07-15 20:27:00,77.4,0.0,30.28,North,360,0.0,0.0,0,0.00,,-RA,0.00,VWS V14.01,2013-07-16 00:27:00,
2013-07-15 20:32:00,77.0,0.0,30.28,North,360,0.0,0.0,0,0.00,,-RA,0.00,VWS V14.01,2013-07-16 00:32:00,
2013-07-15 20:38:00,76.7,0.0,30.28,North,360,0.0,0.0,0,0.00,,-RA,0.00,VWS V14.01,2013-07-16 00:38:00,
2013-07-15 20:43:00,76.3,0.0,30.28,North,359,0.0,0.0,0,0.00,,-RA,0.00,VWS V14.01,2013-07-16 00:43:00,
2013-07-15 20:48:00,76.0,0.0,30.28,North,359,0.0,0.0,0,0.00,,-RA,0.00,VWS V14.01,2013-07-16 00:48:00,
2013-07-15 20:53:00,75.6,0.0,30.28,North,360,0.0,0.0,0,0.00,,-RA,0.00,VWS V14.01,2013-07-16 00:53:00,
2013-07-15 20:58:00,75.3,0.0,30.28,North,359,0.0,0.0,0,0.00,,-RA,0.00,VWS V14.01,2013-07-16 00:58:00,
2013-07-15 21:03:00,75.1,0.0,30.28,North,360,0.0,0.0,0,0.00,,-RA,0.00,VWS V14.01,2013-07-16 01:03:00,
2013-07-15 21:08:00,74.8,0.0,30.28,North,360,0.0,0.0,0,0.00,,-RA,0.00,VWS V14.01,2013-07-16 01:08:00,
2013-07-15 21:13:00,74.6,0.0,30.29,North,360,0.0,0.0,0,0.00,,-RA,0.00,VWS V14.01,2013-07-16 01:13:00,
2013-07-15 21:19:00,74.3,0.0,30.29,North,360,0.0,0.0,0,0.00,,-RA,0.00,VWS V14.01,2013-07-16 01:19:00,
2013-07-15 21:24:00,74.1,0.0,30.29,North,359,0.0,0.0,0,0.00,,-RA,0.00,VWS V14.01,2013-07-16 01:24:00,
2013-07-15 21:29:00,73.9,0.0,30.30,North,360,0.0,0.0,0,0.00,,-RA,0.00,VWS V14.01,2013-07-16 01:29:00,
2013-07-15 21:34:00,73.7,0.0,30.30,North,360,0.0,0.0,0,0.00,,-RA,0.00,VWS V14.01,2013-07-16 01:34:00,
2013-07-15 21:39:00,73.5,0.0,30.30,North,360,0.0,0.0,0,0.00,,-RA,0.00,VWS V14.01,2013-07-16 01:39:00,
2013-07-15 21:44:00,73.4,0.0,30.30,North,360,0.0,0.0,0,0.00,,-RA,0.00,VWS V14.01,2013-07-16 01:44:00,
2013-07-15 21:49:00,73.2,0.0,30.30,North,360,0.0,0.0,0,0.00,,-RA,0.00,VWS V14.01,2013-07-16 01:49:00,
2013-07-15 21:54:00,73.1,0.0,30.31,North,360,0.0,0.0,0,0.00,,-RA,0.00,VWS V14.01,2013-07-16 01:54:00,
2013-07-15 21:59:00,72.9,0.0,30.31,North,360,0.0,0.0,0,0.00,,-RA,0.00,VWS V14.01,2013-07-16 01:59:00,
2013-07-15 22:04:00,72.7,0.0,30.31,North,359,0.0,0.0,0,0.00,,-RA,0.00,VWS V14.01,2013-07-16 02:04:00,
2013-07-15 22:09:00,72.6,0.0,30.31,North,360,0.0,0.0,0,0.00,,-RA,0.00,VWS V14.01,2013-07-16 02:09:00,
2013-07-15 22:14:00,72.4,0.0,30.31,North,360,0.0,0.0,0,0.00,,-RA,0.00,VWS V14.01,2013-07-16 02:14:00,
2013-07-15 22:20:00,72.3,0.0,30.31,North,359,0.0,0.0,0,0.00,,-RA,0.00,VWS V14.01,2013-07-16 02:20:00,
2013-07-15 22:25:00,72.1,0.0,30.31,North,360,0.0,0.0,0,0.00,,-RA,0.00,VWS V14.01,2013-07-16 02:25:00,
2013-07-15 22:30:00,72.0,0.0,30.31,North,359,0.0,0.0,0,0.00,,-RA,0.00,VWS V14.01,2013-07-16 02:30:00,
2013-07-15 22:35:00,71.8,0.0,30.31,North,360,0.0,0.0,0,0.00,,-RA,0.00,VWS V14.01,2013-07-16 02:35:00,
2013-07-15 22:41:00,71.7,0.0,30.31,North,360,0.0,0.0,0,0.00,,-RA,0.00,VWS V14.01,2013-07-16 02:41:00,
2013-07-15 22:46:00,71.5,0.0,30.31,North,360,0.0,0.0,0,0.00,,-RA,0.00,VWS V14.01,2013-07-16 02:46:00,
2013-07-15 22:51:00,71.4,0.0,30.31,North,360,0.0,0.0,0,0.00,,-RA,0.00,VWS V14.01,2013-07-16 02:51:00,
2013-07-15 22:56:00,71.2,0.0,30.31,North,360,0.0,0.0,0,0.00,,-RA,0.00,VWS V14.01,2013-07-16 02:56:00,
2013-07-15 23:01:00,71.2,0.0,30.31,North,360,0.0,0.0,0,0.00,,-RA,0.00,VWS V14.01,2013-07-16 03:01:00,
2013-07-15 23:06:00,71.0,0.0,30.31,North,360,0.0,0.0,0,0.00,,-RA,0.00,VWS V14.01,2013-07-16 03:06:00,
2013-07-15 23:12:00,70.9,0.0,30.31,North,360,0.0,0.0,0,0.00,,-RA,0.00,VWS V14.01,2013-07-16 03:12:00,
2013-07-15 23:17:00,70.7,0.0,30.32,North,360,0.0,0.0,0,0.00,,-RA,0.00,VWS V14.01,2013-07-16 03:17:00,
2013-07-15 23:22:00,70.6,0.0,30.32,North,360,0.0,0.0,0,0.00,,-RA,0.00,VWS V14.01,2013-07-16 03:22:00,
2013-07-15 23:27:00,70.5,0.0,30.32,North,360,0.0,0.0,0,0.00,,-RA,0.00,VWS V14.01,2013-07-16 03:27:00,
2013-07-15 23:32:00,70.4,0.0,30.32,North,360,0.0,0.0,0,0.00,,-RA,0.00,VWS V14.01,2013-07-16 03:32:00,
2013-07-15 23:37:00,70.4,0.0,30.32,North,360,0.0,0.0,0,0.00,,-RA,0.00,VWS V14.01,2013-07-16 03:37:00,
2013-07-15 23:42:00,70.3,0.0,30.32,North,360,0.0,0.0,0,0.00,,-RA,0.00,VWS V14.01,2013-07-16 03:42:00,
2013-07-15 23:47:00,70.3,0.0,30.32,North,360,0.0,0.0,0,0.00,,-RA,0.00,VWS V14.01,2013-07-16 03:47:00,
2013-07-15 23:53:00,70.3,0.0,30.32,North,360,0.0,0.0,0,0.00,,-RA,0.00,VWS V14.01,2013-07-16 03:53:00,
2013-07-15 23:58:00,70.2,0.0,30.32,North,360,0.0,0.0,0,0.00,,-RA,0.00,VWS V14.01,2013-07-16 03:58:00,